Wilson Lista — 8PRW — position and weather

sailwx.info

Track history (hours):
 
Tides and Currents Weather Stations Pressure Air Temp Water Temp Dewpoint Dewpoint Depression Visibility Wind Speed Wind Dir Waves Ship Positions

Wilson Lista

Last reported at 2014-Nov-26 15:20 UTC. Time now 2014-Nov-26 16:20 UTC.
Position N 54°58' W 005°31'.

Length 88 m; draft 3.7 m.

Type: Cargo ship. MMSI: 314188000.

Date/timePositionNaut miles runAvg speedWind from/ knotsBaromVisibWave heightAir tempDewpointWater temp
2014-Nov-26 15:20N 54°58' W 005°31'910.9
2014-Nov-26 14:33N 54°51' W 005°23'1010.0
2014-Nov-26 13:33N 54°42' W 005°14'9 9.2
2014-Nov-26 12:33N 54°33' W 005°09'9 8.8
2014-Nov-26 11:33N 54°25' W 005°05'82 9.1
2014-Nov-26 02:32N 53°32' W 003°18'9 9.0
2014-Nov-26 01:33N 53°29' W 003°04'9 8.6
2014-Nov-26 00:30N 53°21' W 002°55'1 0.0
2014-Nov-24 00:17N 53°21' W 002°54'3 4.6
2014-Nov-23 23:33N 53°23' W 002°59'1110.8
2014-Nov-23 22:33N 53°32' W 003°09'8 6.7
2014-Nov-23 21:25N 53°31' W 003°22'  
2014-Nov-18 18:09N 37°52' W 009°35'5 8.2
2014-Nov-18 17:32N 37°47' W 009°34'230 7.4
2014-Nov-17 10:33N 35°57' W 005°21'3 3.3
2014-Nov-17 09:31N 35°54' W 005°19'0 0.0
2014-Nov-17 08:33N 35°54' W 005°19'0 0.0
2014-Nov-17 07:33N 35°54' W 005°19'1 0.9
2014-Nov-17 06:33N 35°55' W 005°18'  
Track history (hours):
 
Tides and Currents Weather Stations Pressure Air Temp Water Temp Dewpoint Dewpoint Depression Visibility Wind Speed Wind Dir Waves Ship Positions

Wilson Lista

Last reported at 2014-Nov-26 15:20 UTC. Time now 2014-Nov-26 16:20 UTC.
Position N 54°58' W 005°31'.

Length 88 m; draft 3.7 m.

Type: Cargo ship. MMSI: 314188000.

Date/timePositionNaut miles runAvg speedWind from/ knotsBaromVisibWave heightAir tempDewpointWater temp
2014-Nov-26 15:20N 54°58' W 005°31'910.9
2014-Nov-26 14:33N 54°51' W 005°23'1010.0
2014-Nov-26 13:33N 54°42' W 005°14'9 9.2
2014-Nov-26 12:33N 54°33' W 005°09'9 8.8
2014-Nov-26 11:33N 54°25' W 005°05'82 9.1
2014-Nov-26 02:32N 53°32' W 003°18'9 9.0
2014-Nov-26 01:33N 53°29' W 003°04'9 8.6
2014-Nov-26 00:30N 53°21' W 002°55'1 0.0
2014-Nov-24 00:17N 53°21' W 002°54'3 4.6
2014-Nov-23 23:33N 53°23' W 002°59'1110.8
2014-Nov-23 22:33N 53°32' W 003°09'8 6.7
2014-Nov-23 21:25N 53°31' W 003°22'  
2014-Nov-18 18:09N 37°52' W 009°35'5 8.2
2014-Nov-18 17:32N 37°47' W 009°34'230 7.4
2014-Nov-17 10:33N 35°57' W 005°21'3 3.3
2014-Nov-17 09:31N 35°54' W 005°19'0 0.0
2014-Nov-17 08:33N 35°54' W 005°19'0 0.0
2014-Nov-17 07:33N 35°54' W 005°19'1 0.9
2014-Nov-17 06:33N 35°55' W 005°18'  

Dump ship's entire track history